Al Hoceima, Morocco

3:27 PM WEST on September 19, 2017 (GMT +0100)
Al Hoceima

Weather History for GMTA - March, 2013

Change the Weather History Date:

Sunday, March 3, 2013

  Actual Average Record
Temperature  
Mean Temperature 61 °F -  
Max Temperature 71 °F 63 °F 75 °F (2003)
Min Temperature 51 °F 49 °F 33 °F (2001)
Degree Days  
Heating Degree Days 4    
Growing Degree Days 11 (Base 50)    
Moisture  
Dew Point 50 °F    
Average Humidity 64    
Maximum Humidity 77    
Minimum Humidity 45    
Precipitation  
Precipitation 0.00 in - - ()
Sea Level Pressure  
Sea Level Pressure 29.84 in    
Wind  
Wind Speed 7 mph ()    
Max Wind Speed 16 mph    
Max Gust Speed -    
Visibility 6.1 miles    
Events Rain    
Averages and records for this station are not official NWS values.
T = Trace of Precipitation, MM = Missing Value Source: Averaged Metar Reports

Daily Weather History Graph

Daily Weather History Graph

Search for Another Location

Airport or City:

Trip Planner

Search our weather history database for the weather conditions in past years. The results will help you decide how hot, cold, wet, or windy it might be!

Date:

Astronomy

Mar. 03, 2013 Rise Set
Actual Time 6:42 AM WET 6:12 PM WET
Civil Twilight 6:16 AM WET 6:38 PM WET
Nautical Twilight 5:47 AM WET 7:07 PM WET
Astronomical Twilight 5:18 AM WET 7:37 PM WET
Moon No Moon Rise 10:00 AM WET (3/3)
Length of Visible Light 12h 21m
Length of Day
11h 30m
Waning Gibbous, 66% of the Moon is Illuminated
Mar 3
Waning Gibbous
Mar 4
Last Quarter
Mar 11
New
Mar 19
First Quarter
Mar 27
Full

Hourly Weather History & Observations

Time (WET) Temp. Dew Point Humidity Pressure Visibility Wind Dir Wind Speed Gust Speed Precip Events Conditions
6:00 AM 53 °F 45 °F 66% 29.95 in 6 mi South 4.6 mph - -   Partly Cloudy
6:00 AM 53.6 °F 44.6 °F 72% 29.95 in 6.2 mi South 2.3 mph - N/A   Mostly Cloudy
7:00 AM 51.8 °F 44.6 °F 76% 29.92 in 6.2 mi SW 2.3 mph - N/A Rain Light Rain
8:00 AM 53.6 °F 46.4 °F 77% 29.92 in 6.2 mi East 4.6 mph - N/A   Mostly Cloudy
9:00 AM 58 °F 50 °F 66% 29.92 in 6 mi ESE 2.3 mph - -   Partly Cloudy
9:00 AM 57.2 °F 50.0 °F 77% 29.92 in 6.2 mi ESE 2.3 mph - N/A   Mostly Cloudy
10:00 AM 60.8 °F 48.2 °F 63% 29.89 in 6.2 mi NW 4.6 mph - N/A   Mostly Cloudy
11:00 AM 66.2 °F 51.8 °F 60% 29.89 in 6.2 mi North 6.9 mph - N/A   Scattered Clouds
12:00 PM 69 °F 52 °F 45% 29.87 in 6 mi ENE 16.1 mph - -   Partly Cloudy
12:00 PM 68.0 °F 51.8 °F 56% 29.86 in 6.2 mi ENE 16.1 mph - N/A   Scattered Clouds
1:00 PM 69.8 °F 51.8 °F 53% 29.83 in 6.2 mi East 16.1 mph - N/A   Scattered Clouds
2:00 PM 69.8 °F 53.6 °F 56% 29.80 in 6.2 mi NE 13.8 mph - N/A   Scattered Clouds
3:00 PM 69 °F 53 °F 47% 29.81 in 6 mi ENE 13.8 mph - -   Scattered Clouds
3:00 PM 68.0 °F 53.6 °F 60% 29.80 in 6.2 mi ENE 13.8 mph - N/A   Scattered Clouds
4:00 PM 64.4 °F 51.8 °F 64% 29.80 in 6.2 mi ENE 16.1 mph - N/A   Scattered Clouds
5:00 PM 64.4 °F 51.8 °F 64% 29.77 in 6.2 mi ENE 13.8 mph - N/A   Scattered Clouds
6:00 PM 62 °F 51 °F 58% 29.78 in 6 mi ENE 9.2 mph - -   Scattered Clouds
6:00 PM 62.6 °F 51.8 °F 68% 29.77 in 6.2 mi ENE 9.2 mph - N/A   Scattered Clouds
7:00 PM 60.8 °F 51.8 °F 72% 29.77 in 6.2 mi East 11.5 mph - N/A   Scattered Clouds
8:00 PM 59.0 °F 50.0 °F 72% 29.77 in 6.2 mi ENE 9.2 mph - N/A   Scattered Clouds
9:00 PM 57 °F 49 °F 67% 29.78 in 6 mi ESE 6.9 mph - -   Scattered Clouds
9:00 PM 57.2 °F 48.2 °F 72% 29.77 in 6.2 mi ESE 6.9 mph - N/A   Scattered Clouds